contact:dominique.lefevre@mio.osupytheas.fr, maurice.libes@osupytheas.fr, didier.mallarino@osupytheas.fr
Project:EMSO http://www.emso-fr.org/EMSO-France
Depth: 2436.0 m
Title:EMSO Ligure Ouest : Data MII capteur MICROCAT
DateTime_Computer,Latitude,Longitude,Temperature,Conductivity,Pressure,DateTime_Instrument
DateTime_Computer,Latitude,Longitude,degC,S m-1,dbar,DateTime_Instrument
2019-10-15T00:00:46Z,42.805,6.029,13.3000,4.60021,2469.9,2019-10-15T02:01:11Z
2019-10-15T00:03:49Z,42.805,6.029,13.3000,4.59994,2469.937,2019-10-15T02:04:14Z
2019-10-15T00:06:52Z,42.805,6.029,13.2990,4.60006,2469.923,2019-10-15T02:07:17Z
2019-10-15T00:09:55Z,42.805,6.029,13.2996,4.59995,2469.914,2019-10-15T02:10:21Z
2019-10-15T00:12:59Z,42.805,6.029,13.2994,4.59991,2469.914,2019-10-15T02:13:24Z
2019-10-15T00:16:02Z,42.805,6.029,13.3005,4.59986,2469.876,2019-10-15T02:16:27Z
2019-10-15T00:19:05Z,42.805,6.029,13.3002,4.60035,2469.89,2019-10-15T02:19:30Z
2019-10-15T00:22:08Z,42.805,6.029,13.3038,4.59986,2469.89,2019-10-15T02:22:34Z
2019-10-15T00:25:11Z,42.805,6.029,13.2976,4.60006,2469.9,2019-10-15T02:25:37Z
2019-10-15T00:28:15Z,42.805,6.029,13.3020,4.60005,2469.89,2019-10-15T02:28:40Z
2019-10-15T00:31:18Z,42.805,6.029,13.3009,4.60010,2469.914,2019-10-15T02:31:43Z
2019-10-15T00:34:21Z,42.805,6.029,13.2998,4.60057,2469.89,2019-10-15T02:34:46Z
2019-10-15T00:37:24Z,42.805,6.029,13.3011,4.60064,2469.853,2019-10-15T02:37:50Z
2019-10-15T00:40:28Z,42.805,6.029,13.3016,4.60059,2469.89,2019-10-15T02:40:53Z
2019-10-15T00:43:31Z,42.805,6.029,13.2995,4.60025,2469.89,2019-10-15T02:43:56Z
2019-10-15T00:46:34Z,42.805,6.029,13.2985,4.60029,2469.89,2019-10-15T02:46:59Z
2019-10-15T00:49:37Z,42.805,6.029,13.2988,4.60010,2469.876,2019-10-15T02:50:03Z
2019-10-15T00:52:40Z,42.805,6.029,13.2992,4.60018,2469.89,2019-10-15T02:53:06Z
2019-10-15T00:55:44Z,42.805,6.029,13.2983,4.60032,2469.876,2019-10-15T02:56:09Z
2019-10-15T00:58:47Z,42.805,6.029,13.2979,4.60031,2469.867,2019-10-15T02:59:13Z
2019-10-15T01:01:51Z,42.805,6.029,13.3004,4.59999,2469.876,2019-10-15T03:02:16Z
2019-10-15T01:04:54Z,42.805,6.029,13.2996,4.60021,2469.853,2019-10-15T03:05:19Z
2019-10-15T01:07:57Z,42.805,6.029,13.2993,4.60021,2469.863,2019-10-15T03:08:23Z
2019-10-15T01:11:00Z,42.805,6.029,13.2983,4.60004,2469.876,2019-10-15T03:11:26Z
2019-10-15T01:14:04Z,42.805,6.029,13.2994,4.60025,2469.89,2019-10-15T03:14:29Z
2019-10-15T01:17:07Z,42.805,6.029,13.3008,4.59994,2469.844,2019-10-15T03:17:32Z
2019-10-15T01:20:10Z,42.805,6.029,13.2995,4.59986,2469.844,2019-10-15T03:20:35Z
2019-10-15T01:23:13Z,42.805,6.029,13.3006,4.60013,2469.89,2019-10-15T03:23:39Z
2019-10-15T01:26:17Z,42.805,6.029,13.3010,4.60014,2469.89,2019-10-15T03:26:42Z
2019-10-15T01:29:20Z,42.805,6.029,13.3004,4.60006,2469.853,2019-10-15T03:29:45Z
2019-10-15T01:32:23Z,42.805,6.029,13.2995,4.60014,2469.867,2019-10-15T03:32:48Z
2019-10-15T01:35:26Z,42.805,6.029,13.2982,4.60006,2469.89,2019-10-15T03:35:52Z
2019-10-15T01:38:30Z,42.805,6.029,13.2979,4.60010,2469.881,2019-10-15T03:38:55Z
2019-10-15T01:41:33Z,42.805,6.029,13.2978,4.60007,2469.83,2019-10-15T03:41:58Z
2019-10-15T01:44:36Z,42.805,6.029,13.2983,4.60030,2469.853,2019-10-15T03:45:01Z
2019-10-15T01:47:39Z,42.805,6.029,13.2990,4.60026,2469.867,2019-10-15T03:48:05Z
2019-10-15T01:50:42Z,42.805,6.029,13.2996,4.60006,2469.867,2019-10-15T03:51:08Z
2019-10-15T01:53:46Z,42.805,6.029,13.2988,4.59994,2469.867,2019-10-15T03:54:11Z
2019-10-15T01:56:49Z,42.805,6.029,13.2996,4.59998,2469.83,2019-10-15T03:57:14Z
2019-10-15T01:59:52Z,42.805,6.029,13.2996,4.59982,2469.83,2019-10-15T04:00:17Z
2019-10-15T02:02:55Z,42.805,6.029,13.2989,4.60002,2469.89,2019-10-15T04:03:21Z
2019-10-15T02:05:58Z,42.805,6.029,13.2986,4.59982,2469.89,2019-10-15T04:06:24Z
2019-10-15T02:09:02Z,42.805,6.029,13.2988,4.59974,2469.853,2019-10-15T04:09:27Z
2019-10-15T02:12:05Z,42.805,6.029,13.2998,4.59983,2469.853,2019-10-15T04:12:30Z
2019-10-15T02:15:08Z,42.805,6.029,13.3017,4.59994,2469.853,2019-10-15T04:15:33Z
2019-10-15T02:18:11Z,42.805,6.029,13.3017,4.59987,2469.853,2019-10-15T04:18:37Z
2019-10-15T02:21:15Z,42.805,6.029,13.3037,4.59986,2469.876,2019-10-15T04:21:40Z
2019-10-15T02:24:18Z,42.805,6.029,13.2995,4.59992,2469.89,2019-10-15T04:24:43Z
2019-10-15T02:27:21Z,42.805,6.029,13.3027,4.59998,2469.853,2019-10-15T04:27:46Z
2019-10-15T02:30:24Z,42.805,6.029,13.3006,4.60011,2469.853,2019-10-15T04:30:50Z
2019-10-15T02:33:27Z,42.805,6.029,13.3038,4.60024,2469.867,2019-10-15T04:33:53Z
2019-10-15T02:36:31Z,42.805,6.029,13.3044,4.59992,2469.867,2019-10-15T04:36:56Z
2019-10-15T02:39:34Z,42.805,6.029,13.3041,4.59991,2469.876,2019-10-15T04:39:59Z
2019-10-15T02:42:37Z,42.805,6.029,13.3024,4.59994,2469.853,2019-10-15T04:43:02Z
2019-10-15T02:45:40Z,42.805,6.029,13.3039,4.59996,2469.853,2019-10-15T04:46:06Z
2019-10-15T02:48:44Z,42.805,6.029,13.3017,4.59983,2469.876,2019-10-15T04:49:09Z
2019-10-15T02:51:47Z,42.805,6.029,13.3007,4.59985,2469.867,2019-10-15T04:52:12Z
2019-10-15T02:54:50Z,42.805,6.029,13.3034,4.59992,2469.89,2019-10-15T04:55:15Z
2019-10-15T02:57:53Z,42.805,6.029,13.3024,4.59994,2469.844,2019-10-15T04:58:19Z
2019-10-15T03:00:56Z,42.805,6.029,13.3037,4.59993,2469.876,2019-10-15T05:01:22Z
2019-10-15T03:04:00Z,42.805,6.029,13.3028,4.59991,2469.867,2019-10-15T05:04:25Z
2019-10-15T03:07:03Z,42.805,6.029,13.3029,4.59994,2469.867,2019-10-15T05:07:28Z
2019-10-15T03:10:06Z,42.805,6.029,13.3012,4.59993,2469.853,2019-10-15T05:10:31Z
2019-10-15T03:13:09Z,42.805,6.029,13.3048,4.60008,2469.876,2019-10-15T05:13:35Z
2019-10-15T03:16:13Z,42.805,6.029,13.3029,4.60001,2469.9,2019-10-15T05:16:38Z
2019-10-15T03:19:16Z,42.805,6.029,13.3003,4.60008,2469.876,2019-10-15T05:19:41Z
2019-10-15T03:22:19Z,42.805,6.029,13.3014,4.59994,2469.876,2019-10-15T05:22:44Z
2019-10-15T03:25:22Z,42.805,6.029,13.3018,4.59993,2469.89,2019-10-15T05:25:48Z
2019-10-15T03:28:25Z,42.805,6.029,13.3041,4.59996,2469.876,2019-10-15T05:28:51Z
2019-10-15T03:31:29Z,42.805,6.029,13.3039,4.60007,2469.876,2019-10-15T05:31:54Z
2019-10-15T03:34:32Z,42.805,6.029,13.3033,4.59987,2469.876,2019-10-15T05:34:57Z
2019-10-15T03:37:35Z,42.805,6.029,13.3005,4.59993,2469.867,2019-10-15T05:38:01Z
2019-10-15T03:40:38Z,42.805,6.029,13.3004,4.60002,2469.876,2019-10-15T05:41:04Z
2019-10-15T03:43:42Z,42.805,6.029,13.3010,4.59991,2469.89,2019-10-15T05:44:07Z
2019-10-15T03:46:45Z,42.805,6.029,13.3032,4.59996,2469.9,2019-10-15T05:47:10Z
2019-10-15T03:49:48Z,42.805,6.029,13.3031,4.59992,2469.937,2019-10-15T05:50:13Z
2019-10-15T03:52:51Z,42.805,6.029,13.3024,4.59997,2469.914,2019-10-15T05:53:17Z
2019-10-15T03:55:54Z,42.805,6.029,13.2999,4.59991,2469.89,2019-10-15T05:56:20Z
2019-10-15T03:58:58Z,42.805,6.029,13.3000,4.59994,2469.923,2019-10-15T05:59:23Z
2019-10-15T04:02:01Z,42.805,6.029,13.3024,4.59996,2469.914,2019-10-15T06:02:26Z
2019-10-15T04:05:04Z,42.805,6.029,13.3038,4.60001,2469.914,2019-10-15T06:05:30Z
2019-10-15T04:08:07Z,42.805,6.029,13.3015,4.59999,2469.9,2019-10-15T06:08:33Z
2019-10-15T04:11:11Z,42.805,6.029,13.3020,4.60000,2469.89,2019-10-15T06:11:36Z
2019-10-15T04:14:14Z,42.805,6.029,13.3035,4.60009,2469.937,2019-10-15T06:14:39Z
2019-10-15T04:17:17Z,42.805,6.029,13.3015,4.59991,2469.9,2019-10-15T06:17:42Z
2019-10-15T04:20:20Z,42.805,6.029,13.3009,4.59996,2469.937,2019-10-15T06:20:46Z
2019-10-15T04:23:23Z,42.805,6.029,13.3014,4.60011,2469.937,2019-10-15T06:23:49Z
2019-10-15T04:26:27Z,42.805,6.029,13.3004,4.60001,2469.914,2019-10-15T06:26:52Z
2019-10-15T04:29:30Z,42.805,6.029,13.2998,4.59990,2469.937,2019-10-15T06:29:55Z
2019-10-15T04:32:33Z,42.805,6.029,13.2999,4.59993,2469.9,2019-10-15T06:32:58Z
2019-10-15T04:35:37Z,42.805,6.029,13.2993,4.59990,2469.937,2019-10-15T06:36:02Z
2019-10-15T04:38:40Z,42.805,6.029,13.3016,4.59991,2469.9,2019-10-15T06:39:05Z
2019-10-15T04:41:43Z,42.805,6.029,13.3004,4.60003,2469.923,2019-10-15T06:42:08Z
2019-10-15T04:44:46Z,42.805,6.029,13.2996,4.60003,2469.96,2019-10-15T06:45:12Z
2019-10-15T04:47:50Z,42.805,6.029,13.3021,4.60008,2469.97,2019-10-15T06:48:15Z
2019-10-15T04:50:53Z,42.805,6.029,13.3032,4.60007,2469.96,2019-10-15T06:51:18Z
2019-10-15T04:53:56Z,42.805,6.029,13.3022,4.59999,2469.947,2019-10-15T06:54:21Z
2019-10-15T04:56:59Z,42.805,6.029,13.2989,4.59994,2469.947,2019-10-15T06:57:25Z
2019-10-15T05:00:02Z,42.805,6.029,13.2968,4.60020,2470.007,2019-10-15T07:00:28Z
2019-10-15T05:03:06Z,42.805,6.029,13.3006,4.59999,2469.937,2019-10-15T07:03:31Z
2019-10-15T05:06:09Z,42.805,6.029,13.3011,4.59993,2469.96,2019-10-15T07:06:34Z
2019-10-15T05:09:12Z,42.805,6.029,13.3057,4.60008,2469.984,2019-10-15T07:09:37Z
2019-10-15T05:12:15Z,42.805,6.029,13.3009,4.59995,2469.96,2019-10-15T07:12:41Z
2019-10-15T05:15:18Z,42.805,6.029,13.3002,4.60003,2469.947,2019-10-15T07:15:44Z
2019-10-15T05:18:22Z,42.805,6.029,13.2996,4.59991,2469.97,2019-10-15T07:18:47Z
2019-10-15T05:21:25Z,42.805,6.029,13.3002,4.60007,2469.984,2019-10-15T07:21:50Z
2019-10-15T05:24:28Z,42.805,6.029,13.2971,4.59991,2469.97,2019-10-15T07:24:53Z
2019-10-15T05:27:31Z,42.805,6.029,13.2988,4.60003,2469.984,2019-10-15T07:27:57Z
2019-10-15T05:30:34Z,42.805,6.029,13.2960,4.60002,2469.97,2019-10-15T07:31:00Z
2019-10-15T05:33:38Z,42.805,6.029,13.2988,4.59992,2469.984,2019-10-15T07:34:03Z
2019-10-15T05:36:41Z,42.805,6.029,13.3082,4.60009,2469.993,2019-10-15T07:37:06Z
2019-10-15T05:39:44Z,42.805,6.029,13.3019,4.59988,2469.993,2019-10-15T07:40:09Z
2019-10-15T05:42:47Z,42.805,6.029,13.2979,4.59994,2470.017,2019-10-15T07:43:13Z
2019-10-15T05:45:51Z,42.805,6.029,13.2977,4.60003,2469.96,2019-10-15T07:46:16Z
2019-10-15T05:48:54Z,42.805,6.029,13.2973,4.59991,2470.007,2019-10-15T07:49:19Z
2019-10-15T05:51:57Z,42.805,6.029,13.3008,4.60002,2470.03,2019-10-15T07:52:22Z
2019-10-15T05:55:00Z,42.805,6.029,13.3018,4.59986,2470.017,2019-10-15T07:55:26Z
2019-10-15T05:58:03Z,42.805,6.029,13.3008,4.60006,2470.017,2019-10-15T07:58:29Z
2019-10-15T06:01:07Z,42.805,6.029,13.3014,4.59999,2469.993,2019-10-15T08:01:32Z
2019-10-15T06:04:10Z,42.805,6.029,13.2996,4.60015,2470.03,2019-10-15T08:04:35Z
2019-10-15T06:07:13Z,42.805,6.029,13.3028,4.59987,2469.993,2019-10-15T08:07:39Z
2019-10-15T06:10:16Z,42.805,6.029,13.2999,4.60001,2470.03,2019-10-15T08:10:42Z
2019-10-15T06:13:19Z,42.805,6.029,13.2975,4.60006,2470.03,2019-10-15T08:13:45Z
2019-10-15T06:16:23Z,42.805,6.029,13.2980,4.60021,2470.04,2019-10-15T08:16:48Z
2019-10-15T06:19:26Z,42.805,6.029,13.3064,4.60001,2470.03,2019-10-15T08:19:51Z
2019-10-15T06:22:29Z,42.805,6.029,13.2996,4.60000,2470.04,2019-10-15T08:22:55Z
2019-10-15T06:25:32Z,42.805,6.029,13.2958,4.59999,2470.017,2019-10-15T08:25:58Z
2019-10-15T06:28:36Z,42.805,6.029,13.3022,4.60009,2470.04,2019-10-15T08:29:01Z
2019-10-15T06:31:39Z,42.805,6.029,13.3004,4.60006,2470.04,2019-10-15T08:32:04Z
2019-10-15T06:34:42Z,42.805,6.029,13.3072,4.59991,2470.03,2019-10-15T08:35:07Z
2019-10-15T06:37:45Z,42.805,6.029,13.3010,4.59993,2470.04,2019-10-15T08:38:11Z
2019-10-15T06:40:48Z,42.805,6.029,13.2998,4.59980,2470.087,2019-10-15T08:41:14Z
2019-10-15T06:43:52Z,42.805,6.029,13.2997,4.59985,2470.03,2019-10-15T08:44:17Z
2019-10-15T06:46:55Z,42.805,6.029,13.3026,4.59994,2470.007,2019-10-15T08:47:20Z
2019-10-15T06:49:58Z,42.805,6.029,13.2958,4.59989,2470.053,2019-10-15T08:50:24Z
2019-10-15T06:53:01Z,42.805,6.029,13.2957,4.59971,2470.063,2019-10-15T08:53:27Z
2019-10-15T06:56:05Z,42.805,6.029,13.2959,4.59966,2470.017,2019-10-15T08:56:30Z
2019-10-15T06:59:08Z,42.805,6.029,13.2958,4.59968,2470.053,2019-10-15T08:59:33Z
2019-10-15T07:02:11Z,42.805,6.029,13.2958,4.59968,2470.053,2019-10-15T09:02:36Z
2019-10-15T07:05:14Z,42.805,6.029,13.2957,4.59968,2470.053,2019-10-15T09:05:40Z
2019-10-15T07:08:17Z,42.805,6.029,13.2958,4.59970,2470.053,2019-10-15T09:08:43Z
2019-10-15T07:11:21Z,42.805,6.029,13.2953,4.59964,2470.04,2019-10-15T09:11:46Z
2019-10-15T07:14:24Z,42.805,6.029,13.2955,4.59966,2470.049,2019-10-15T09:14:49Z
2019-10-15T07:17:27Z,42.805,6.029,13.2960,4.59966,2470.053,2019-10-15T09:17:52Z
2019-10-15T07:20:30Z,42.805,6.029,13.2953,4.59963,2470.063,2019-10-15T09:20:56Z
2019-10-15T07:23:33Z,42.805,6.029,13.2954,4.59961,2470.017,2019-10-15T09:23:59Z
2019-10-15T07:26:37Z,42.805,6.029,13.2953,4.59961,2470.04,2019-10-15T09:27:02Z
2019-10-15T07:29:40Z,42.805,6.029,13.2958,4.59961,2470.04,2019-10-15T09:30:05Z
2019-10-15T07:32:43Z,42.805,6.029,13.2953,4.59971,2470.087,2019-10-15T09:33:09Z
2019-10-15T07:35:46Z,42.805,6.029,13.2960,4.59962,2470.053,2019-10-15T09:36:12Z
2019-10-15T07:38:50Z,42.805,6.029,13.2952,4.59962,2470.063,2019-10-15T09:39:15Z
2019-10-15T07:41:53Z,42.805,6.029,13.2955,4.59964,2470.087,2019-10-15T09:42:18Z
2019-10-15T07:44:56Z,42.805,6.029,13.2956,4.59963,2470.063,2019-10-15T09:45:22Z
2019-10-15T07:47:59Z,42.805,6.029,13.2954,4.59966,2470.063,2019-10-15T09:48:25Z
2019-10-15T07:51:03Z,42.805,6.029,13.2955,4.59966,2470.077,2019-10-15T09:51:28Z
2019-10-15T07:54:06Z,42.805,6.029,13.2955,4.59962,2470.087,2019-10-15T09:54:31Z
2019-10-15T07:57:09Z,42.805,6.029,13.2958,4.59964,2470.053,2019-10-15T09:57:34Z
2019-10-15T08:00:12Z,42.805,6.029,13.2958,4.59961,2470.063,2019-10-15T10:00:38Z
2019-10-15T08:03:15Z,42.805,6.029,13.2953,4.59962,2470.04,2019-10-15T10:03:41Z
2019-10-15T08:06:19Z,42.805,6.029,13.2953,4.59970,2470.063,2019-10-15T10:06:44Z
2019-10-15T08:09:22Z,42.805,6.029,13.2957,4.59961,2470.077,2019-10-15T10:09:47Z
2019-10-15T08:12:25Z,42.805,6.029,13.2957,4.59965,2470.04,2019-10-15T10:12:50Z
2019-10-15T08:15:28Z,42.805,6.029,13.2953,4.59964,2470.063,2019-10-15T10:15:54Z
2019-10-15T08:18:31Z,42.805,6.029,13.2958,4.59960,2470.077,2019-10-15T10:18:57Z
2019-10-15T08:21:35Z,42.805,6.029,13.2957,4.59961,2470.04,2019-10-15T10:22:00Z
2019-10-15T08:24:38Z,42.805,6.029,13.2955,4.59965,2470.1,2019-10-15T10:25:03Z
2019-10-15T08:27:41Z,42.805,6.029,13.2957,4.59964,2470.063,2019-10-15T10:28:07Z
2019-10-15T08:30:44Z,42.805,6.029,13.2958,4.59964,2470.053,2019-10-15T10:31:10Z
2019-10-15T08:33:48Z,42.805,6.029,13.2955,4.59966,2470.063,2019-10-15T10:34:13Z
2019-10-15T08:36:51Z,42.805,6.029,13.2955,4.59966,2470.063,2019-10-15T10:37:16Z
2019-10-15T08:39:54Z,42.805,6.029,13.2953,4.59962,2470.1,2019-10-15T10:40:19Z
2019-10-15T08:42:57Z,42.805,6.029,13.2958,4.59964,2470.053,2019-10-15T10:43:23Z
2019-10-15T08:46:00Z,42.805,6.029,13.2955,4.59966,2470.077,2019-10-15T10:46:26Z
2019-10-15T08:49:04Z,42.805,6.029,13.2954,4.59964,2470.03,2019-10-15T10:49:29Z
2019-10-15T08:52:07Z,42.805,6.029,13.2958,4.59964,2470.04,2019-10-15T10:52:32Z
2019-10-15T08:55:10Z,42.805,6.029,13.2955,4.59964,2470.053,2019-10-15T10:55:35Z
2019-10-15T08:58:13Z,42.805,6.029,13.2958,4.59963,2470.063,2019-10-15T10:58:39Z
2019-10-15T09:01:17Z,42.805,6.029,13.2954,4.59962,2470.04,2019-10-15T11:01:42Z
2019-10-15T09:04:20Z,42.805,6.029,13.2957,4.59966,2470.077,2019-10-15T11:04:45Z
2019-10-15T09:07:23Z,42.805,6.029,13.2957,4.59969,2470.04,2019-10-15T11:07:48Z
2019-10-15T09:10:26Z,42.805,6.029,13.2957,4.59977,2470.077,2019-10-15T11:10:52Z
2019-10-15T09:13:29Z,42.805,6.029,13.2955,4.59976,2470.063,2019-10-15T11:13:55Z
2019-10-15T09:16:33Z,42.805,6.029,13.2953,4.59978,2470.053,2019-10-15T11:16:58Z
2019-10-15T09:19:36Z,42.805,6.029,13.2957,4.59964,2470.053,2019-10-15T11:20:01Z
2019-10-15T09:22:39Z,42.805,6.029,13.2959,4.59972,2470.017,2019-10-15T11:23:05Z
2019-10-15T09:25:42Z,42.805,6.029,13.2957,4.59963,2470.04,2019-10-15T11:26:08Z
2019-10-15T09:28:46Z,42.805,6.029,13.2954,4.59963,2470.03,2019-10-15T11:29:11Z
2019-10-15T09:31:49Z,42.805,6.029,13.2954,4.59984,2470.063,2019-10-15T11:32:14Z
2019-10-15T09:34:52Z,42.805,6.029,13.2953,4.59977,2470.03,2019-10-15T11:35:17Z
2019-10-15T09:37:55Z,42.805,6.029,13.2953,4.59969,2470.04,2019-10-15T11:38:21Z
2019-10-15T09:40:59Z,42.805,6.029,13.2955,4.59976,2470.053,2019-10-15T11:41:24Z
2019-10-15T09:44:02Z,42.805,6.029,13.2953,4.59964,2470.04,2019-10-15T11:44:27Z
2019-10-15T09:47:05Z,42.805,6.029,13.2957,4.59983,2470.017,2019-10-15T11:47:30Z
2019-10-15T09:50:08Z,42.805,6.029,13.2954,4.59980,2470.017,2019-10-15T11:50:34Z
2019-10-15T09:53:11Z,42.805,6.029,13.2952,4.59977,2470.017,2019-10-15T11:53:37Z
2019-10-15T09:56:15Z,42.805,6.029,13.2958,4.59962,2470.03,2019-10-15T11:56:40Z
2019-10-15T09:59:18Z,42.805,6.029,13.2956,4.59968,2470.007,2019-10-15T11:59:43Z
2019-10-15T10:02:21Z,42.805,6.029,13.2958,4.59971,2470.053,2019-10-15T12:02:47Z
2019-10-15T10:05:24Z,42.805,6.029,13.2961,4.59960,2470.017,2019-10-15T12:05:50Z
2019-10-15T10:08:28Z,42.805,6.029,13.2953,4.59979,2470.017,2019-10-15T12:08:53Z
2019-10-15T10:11:31Z,42.805,6.029,13.2956,4.59967,2470.03,2019-10-15T12:11:56Z
2019-10-15T10:14:34Z,42.805,6.029,13.2953,4.59958,2470.007,2019-10-15T12:14:59Z
2019-10-15T10:17:37Z,42.805,6.029,13.2959,4.59958,2469.993,2019-10-15T12:18:03Z
2019-10-15T10:20:41Z,42.805,6.029,13.2955,4.59967,2470.017,2019-10-15T12:21:06Z
2019-10-15T10:23:44Z,42.805,6.029,13.2955,4.59958,2470.017,2019-10-15T12:24:10Z
2019-10-15T10:26:47Z,42.805,6.029,13.2959,4.59958,2470.03,2019-10-15T12:27:13Z
2019-10-15T10:29:51Z,42.805,6.029,13.2963,4.59958,2470.017,2019-10-15T12:30:16Z
2019-10-15T10:32:54Z,42.805,6.029,13.2956,4.59960,2470.007,2019-10-15T12:33:19Z
2019-10-15T10:35:57Z,42.805,6.029,13.2963,4.59959,2469.993,2019-10-15T12:36:22Z
2019-10-15T10:39:00Z,42.805,6.029,13.2959,4.59961,2469.97,2019-10-15T12:39:26Z
2019-10-15T10:42:03Z,42.805,6.029,13.2967,4.59960,2470.007,2019-10-15T12:42:29Z
2019-10-15T10:45:07Z,42.805,6.029,13.2962,4.59961,2470.007,2019-10-15T12:45:32Z
2019-10-15T10:48:10Z,42.805,6.029,13.2955,4.59961,2470.007,2019-10-15T12:48:35Z
2019-10-15T10:51:13Z,42.805,6.029,13.2961,4.59959,2470.017,2019-10-15T12:51:38Z
2019-10-15T10:54:16Z,42.805,6.029,13.2960,4.59962,2469.993,2019-10-15T12:54:42Z
2019-10-15T10:57:20Z,42.805,6.029,13.2957,4.59959,2469.993,2019-10-15T12:57:45Z
2019-10-15T11:00:23Z,42.805,6.029,13.2958,4.59959,2469.993,2019-10-15T13:00:48Z
2019-10-15T11:03:26Z,42.805,6.029,13.2958,4.59968,2469.947,2019-10-15T13:03:52Z
2019-10-15T11:06:29Z,42.805,6.029,13.2958,4.59961,2469.984,2019-10-15T13:06:55Z
2019-10-15T11:09:33Z,42.805,6.029,13.2957,4.59958,2469.947,2019-10-15T13:09:58Z
2019-10-15T11:12:36Z,42.805,6.029,13.2958,4.59960,2469.97,2019-10-15T13:13:01Z
2019-10-15T11:15:39Z,42.805,6.029,13.2957,4.59958,2469.933,2019-10-15T13:16:05Z
2019-10-15T11:18:42Z,42.805,6.029,13.2958,4.59958,2469.97,2019-10-15T13:19:08Z
2019-10-15T11:21:46Z,42.805,6.029,13.2957,4.59958,2469.97,2019-10-15T13:22:11Z
2019-10-15T11:24:49Z,42.805,6.029,13.2952,4.59964,2469.97,2019-10-15T13:25:14Z
2019-10-15T11:27:52Z,42.805,6.029,13.2959,4.59958,2469.993,2019-10-15T13:28:17Z
2019-10-15T11:30:55Z,42.805,6.029,13.2956,4.59957,2469.947,2019-10-15T13:31:21Z
2019-10-15T11:33:58Z,42.805,6.029,13.2956,4.59960,2469.947,2019-10-15T13:34:24Z
2019-10-15T11:37:02Z,42.805,6.029,13.2957,4.59963,2469.96,2019-10-15T13:37:27Z
2019-10-15T11:40:05Z,42.805,6.029,13.2953,4.59957,2469.96,2019-10-15T13:40:30Z
2019-10-15T11:43:08Z,42.805,6.029,13.2955,4.59955,2469.937,2019-10-15T13:43:33Z
2019-10-15T11:46:11Z,42.805,6.029,13.2950,4.59957,2469.937,2019-10-15T13:46:37Z
2019-10-15T11:49:15Z,42.805,6.029,13.2958,4.59959,2469.947,2019-10-15T13:49:40Z
2019-10-15T11:52:18Z,42.805,6.029,13.2955,4.59958,2469.923,2019-10-15T13:52:43Z
2019-10-15T11:55:21Z,42.805,6.029,13.2956,4.59957,2469.984,2019-10-15T13:55:46Z
2019-10-15T11:58:24Z,42.805,6.029,13.2955,4.59977,2469.947,2019-10-15T13:58:50Z
2019-10-15T12:01:27Z,42.805,6.029,13.2954,4.59961,2469.923,2019-10-15T14:01:53Z
2019-10-15T12:04:31Z,42.805,6.029,13.2958,4.59964,2469.923,2019-10-15T14:04:56Z
2019-10-15T12:07:34Z,42.805,6.029,13.2959,4.59973,2469.923,2019-10-15T14:07:59Z
2019-10-15T12:10:37Z,42.805,6.029,13.2956,4.59961,2469.937,2019-10-15T14:11:02Z
2019-10-15T12:13:40Z,42.805,6.029,13.2956,4.59968,2469.914,2019-10-15T14:14:06Z
2019-10-15T12:16:44Z,42.805,6.029,13.2960,4.59968,2469.96,2019-10-15T14:17:09Z
2019-10-15T12:19:47Z,42.805,6.029,13.2957,4.59977,2469.923,2019-10-15T14:20:12Z
2019-10-15T12:22:50Z,42.805,6.029,13.2956,4.59960,2469.914,2019-10-15T14:23:15Z
2019-10-15T12:25:53Z,42.805,6.029,13.2955,4.59958,2469.923,2019-10-15T14:26:19Z
2019-10-15T12:28:56Z,42.805,6.029,13.2953,4.59959,2469.876,2019-10-15T14:29:22Z
2019-10-15T12:32:00Z,42.805,6.029,13.2957,4.59961,2469.937,2019-10-15T14:32:25Z
2019-10-15T12:35:03Z,42.805,6.029,13.2957,4.59960,2469.923,2019-10-15T14:35:28Z
2019-10-15T12:38:06Z,42.805,6.029,13.2955,4.59959,2469.914,2019-10-15T14:38:32Z
2019-10-15T12:41:09Z,42.805,6.029,13.2958,4.59964,2469.9,2019-10-15T14:41:35Z
2019-10-15T12:44:12Z,42.805,6.029,13.2958,4.59965,2469.923,2019-10-15T14:44:38Z
2019-10-15T12:47:16Z,42.805,6.029,13.2957,4.59973,2469.914,2019-10-15T14:47:41Z
2019-10-15T12:50:19Z,42.805,6.029,13.2958,4.59968,2469.876,2019-10-15T14:50:44Z
2019-10-15T12:53:22Z,42.805,6.029,13.2957,4.59969,2469.914,2019-10-15T14:53:48Z
2019-10-15T12:56:25Z,42.805,6.029,13.2960,4.59995,2469.9,2019-10-15T14:56:51Z
2019-10-15T12:59:29Z,42.805,6.029,13.2958,4.59972,2469.876,2019-10-15T14:59:54Z
2019-10-15T13:02:32Z,42.805,6.029,13.2957,4.59975,2469.9,2019-10-15T15:02:57Z
2019-10-15T13:05:35Z,42.805,6.029,13.2953,4.59960,2469.89,2019-10-15T15:06:01Z
2019-10-15T13:08:38Z,42.805,6.029,13.2952,4.59968,2469.89,2019-10-15T15:09:04Z
2019-10-15T13:11:41Z,42.805,6.029,13.2957,4.60010,2469.876,2019-10-15T15:12:07Z
2019-10-15T13:14:45Z,42.805,6.029,13.3016,4.59989,2469.89,2019-10-15T15:15:10Z
2019-10-15T13:17:48Z,42.805,6.029,13.2993,4.59978,2469.89,2019-10-15T15:18:13Z
2019-10-15T13:20:51Z,42.805,6.029,13.2980,4.59995,2469.914,2019-10-15T15:21:17Z
2019-10-15T13:23:55Z,42.805,6.029,13.2982,4.60003,2469.89,2019-10-15T15:24:20Z
2019-10-15T13:26:58Z,42.805,6.029,13.2971,4.59966,2469.876,2019-10-15T15:27:23Z
2019-10-15T13:30:01Z,42.805,6.029,13.2983,4.59966,2469.876,2019-10-15T15:30:27Z
2019-10-15T13:33:04Z,42.805,6.029,13.2989,4.59971,2469.89,2019-10-15T15:33:30Z
2019-10-15T13:36:08Z,42.805,6.029,13.2984,4.59989,2469.89,2019-10-15T15:36:33Z
2019-10-15T13:39:11Z,42.805,6.029,13.2991,4.60014,2469.89,2019-10-15T15:39:37Z
2019-10-15T13:42:14Z,42.805,6.029,13.2999,4.59991,2469.876,2019-10-15T15:42:40Z
2019-10-15T13:45:18Z,42.805,6.029,13.2993,4.60004,2469.89,2019-10-15T15:45:43Z
2019-10-15T13:48:21Z,42.805,6.029,13.2994,4.60004,2469.867,2019-10-15T15:48:46Z
2019-10-15T13:51:25Z,42.805,6.029,13.2983,4.60014,2469.876,2019-10-15T15:51:50Z
2019-10-15T13:54:28Z,42.805,6.029,13.2987,4.60015,2469.89,2019-10-15T15:54:53Z
2019-10-15T13:57:31Z,42.805,6.029,13.3010,4.60006,2469.9,2019-10-15T15:57:57Z
2019-10-15T14:00:34Z,42.805,6.029,13.2980,4.60002,2469.89,2019-10-15T16:01:00Z
2019-10-15T14:03:38Z,42.805,6.029,13.2976,4.60045,2469.853,2019-10-15T16:04:03Z
2019-10-15T14:06:41Z,42.805,6.029,13.2979,4.60021,2469.89,2019-10-15T16:07:06Z
2019-10-15T14:09:44Z,42.805,6.029,13.2993,4.59989,2469.867,2019-10-15T16:10:09Z
2019-10-15T14:12:47Z,42.805,6.029,13.2971,4.60026,2469.89,2019-10-15T16:13:13Z
2019-10-15T14:15:51Z,42.805,6.029,13.2976,4.60042,2469.853,2019-10-15T16:16:16Z
2019-10-15T14:18:54Z,42.805,6.029,13.2986,4.60075,2469.867,2019-10-15T16:19:19Z
2019-10-15T14:21:57Z,42.805,6.029,13.3040,4.60078,2469.867,2019-10-15T16:22:22Z
2019-10-15T14:25:00Z,42.805,6.029,13.2980,4.60104,2469.853,2019-10-15T16:25:26Z
2019-10-15T14:28:03Z,42.805,6.029,13.2977,4.60078,2469.844,2019-10-15T16:28:29Z
2019-10-15T14:31:07Z,42.805,6.029,13.2993,4.60069,2469.867,2019-10-15T16:31:32Z
2019-10-15T14:34:10Z,42.805,6.029,13.3009,4.60044,2469.853,2019-10-15T16:34:35Z
2019-10-15T14:37:13Z,42.805,6.029,13.3008,4.60065,2469.853,2019-10-15T16:37:39Z
2019-10-15T14:40:16Z,42.805,6.029,13.3026,4.60066,2469.876,2019-10-15T16:40:42Z
2019-10-15T14:43:20Z,42.805,6.029,13.3053,4.60047,2469.867,2019-10-15T16:43:45Z
2019-10-15T14:46:23Z,42.805,6.029,13.3027,4.60034,2469.89,2019-10-15T16:46:48Z
2019-10-15T14:49:26Z,42.805,6.029,13.3014,4.60049,2469.867,2019-10-15T16:49:51Z
2019-10-15T14:52:29Z,42.805,6.029,13.3028,4.60064,2469.867,2019-10-15T16:52:55Z
2019-10-15T14:55:32Z,42.805,6.029,13.3043,4.60018,2469.876,2019-10-15T16:55:58Z
2019-10-15T14:58:36Z,42.805,6.029,13.3043,4.60006,2469.867,2019-10-15T16:59:01Z
2019-10-15T15:01:39Z,42.805,6.029,13.3043,4.59992,2469.89,2019-10-15T17:02:04Z